THOR ABLESTAR DEB, 649

Orbit data source: Space-Track

THOR ABLESTAR DEB, 649 is space debris in LEO originally from a launch on Thu, 29 Jun 1961 UTC launched from the Air Force Eastern Test Range (AFETR). Debris objects in space refer to the collection of defunct objects orbiting the Earth. Examples of debris include non-operational satellites, rocket bodies, and fragments generated from explosions, collisions, or faulty payload assembly.

Loading next visibility...
Identifier
649, 1961-015HA
Orbit
LEO
Country
Flag of USUS
Related business
Manufacturer
Unknown
Mission
Spacecraft
Bus & Motor
Unknown
Mass
Unknown
Launch date (UTC)
1961-06-29 (64 years ago)
Launch vehicle
Unknown
Launch site
Air Force Eastern Test Range (AFETR)
Object type
Payload
Rocket body
Debris
Shape & HBR
Unknown shape, 0.1 m
Radar Cross Section
Small (<0.1 m²)

Expand to show TLE details & history
Last TLE update: 19 hours ago

TLE from 19 hours ago
0 THOR ABLESTAR DEB
1 00649U 61015HA  25341.03937712  .00000251  00000-0  90137-3 0  9990
2 00649  66.2649 197.4510 0556147 135.9301  12.3450 12.65270836968324
Epoch: 2025-12-07T00:56Z
TLE epoch observation values (Epoch: 2025-12-07T00:56:42.183Z)
Latitude
27.53196°
Longitude
-85.96264°
Altitude
982.178 km
Speed
7.56 km/s
True Right ascension
00h 17m 05s
True Declination
27° 23' 44"
Sunlit
Object was in daylight at epoch
Visualization orbit readout
Latitude
Unknown
Longitude
Unknown
Altitude
Unknown
Speed
Unknown
Apparent Right ascension
Unknown
Apparent Declination
Unknown
Sunlit
N/A
Visualization observer readout
Local Sidereal Time
17:43:08
Azimuth
Unknown
Elevation
Unknown
Doppler factor
Unknown
Orbital elements
Apogee altitude
1,832.376 km
Perigee altitude
967.24 km
Semi-major axis
7,777.945 km
Eccentricity
0.05561
Inclination
66.2649°
RAAN
197.451°
Arg. of periapsis
135.9301°
True anomaly
13.80632°
Mean anomaly
12.345°
Eccentric anomaly
13.06534°
Mean motion
3.16407 °/min
Orbital period
113.78 mins
BSTAR
0.00090137

Documentation

Showing up to 5 results
|